{"data":{"norad_id":64139,"intl_designator":"2025-111S","name":"STARLINK-34212","alt_names":[],"object_type":"PAYLOAD","status":"ACTIVE","operator":null,"country":"US","launch_date":"2025-05-24","launch_site_code":"AFETR","launch_vehicle":null,"mission":null,"orbit_class":"UNKNOWN","rcs_meters":null,"size_class":null,"mass_kg":null,"dimensions":null,"purposes":["comms"],"wikipedia_slug":null,"has_3d_model":false,"image_url":null,"decayed_at":null,"tle_current":{"epoch":"2026-05-24T23:36:56.787840Z","epoch_age_seconds":69803,"freshness":"FRESH","line1":"1 64139U 25111S   26144.98399060  .00021991  00000+0  80536-3 0  9990","line2":"2 64139  43.0032   6.8222 0001674 277.1448  82.9214 15.27617368 57136","mean_motion":15.27617368,"eccentricity":0.0001674,"inclination_deg":43.0032,"raan_deg":6.8222,"arg_perigee_deg":277.1448,"mean_anomaly_deg":82.9214,"bstar":0.00080536,"rev_number":5713,"period_min":94.264442795992,"perigee_km":481.78866126357,"apogee_km":484.08574890743,"semimajor_km":6861.0742050855,"source":"CELESTRAK","updated_at":"2026-05-25T13:38:20.275365Z"}}}